When you browse on this site, cookies collect data to enhance your experience and personalize the content and advertising you see.
Visit our Privacy Policy to learn more. By continuing to use the site, you agree to this use of cookies and data.
  • în România
  • Lista ţărilor
  • Pe 7 zile
  • Temperatura apei
  • Hartă satelitară
  • Meteo pe hartă
  • Widget-uri
  • user-avatar
    Intrare

    Meteo pe oră la Sharlotte

    Astăzi, 19 Februarie, Marţi

    Timp Temperatura Precipitaţii Vânt Presiune Umiditate
    00:00 +5°C° 0 mm 3 m/s 752 mmHg 58%
    01:00 +3°C° 0 mm 3 m/s 753 mmHg 59%
    02:00 +3°C° 0 mm 4 m/s 753 mmHg 59%
    03:00 +3°C° 0 mm 4 m/s 753 mmHg 58%
    04:00 +1°C° 0 mm 4 m/s 754 mmHg 57%
    05:00 +1°C° 0 mm 4 m/s 754 mmHg 57%
    06:00 +2°C° 0 mm 3 m/s 755 mmHg 57%
    07:00 +3°C° 0 mm 2 m/s 755 mmHg 57%
    08:00 +3°C° 0 mm 2 m/s 755 mmHg 56%
    09:00 +3°C° 0 mm 2 m/s 755 mmHg 56%
    10:00 +2°C° 0 mm 3 m/s 756 mmHg 55%
    11:00 +4°C° 0 mm 2 m/s 756 mmHg 53%
    12:00 +5°C° 0 mm 2 m/s 756 mmHg 52%
    13:00 +5°C° 0 mm 2 m/s 756 mmHg 50%
    14:00 +5°C° 0 mm 2 m/s 755 mmHg 53%
    15:00 +5°C° 0 mm 2 m/s 755 mmHg 55%
    16:00 +5°C° 0 mm 2 m/s 755 mmHg 57%
    17:00 +4°C° 0.1 mm 2 m/s 755 mmHg 59%
    18:00 +4°C° 0.1 mm 2 m/s 755 mmHg 61%
    19:00 +4°C° 0.1 mm 2 m/s 755 mmHg 63%
    20:00 +3°C° 0.1 mm 3 m/s 755 mmHg 65%
    21:00 +3°C° 0.1 mm 3 m/s 755 mmHg 67%
    22:00 +2°C° 0.1 mm 3 m/s 755 mmHg 69%
    23:00 +2°C° 0.2 mm 3 m/s 755 mmHg 71%

    Mâine, 20 Februarie, Miercuri

    Timp Temperatura Precipitaţii Vânt Presiune Umiditate
    00:00 +2°C° 0.2 mm 3 m/s 755 mmHg 74%
    01:00 +1°C° 0.2 mm 3 m/s 755 mmHg 76%
    02:00 0°C° 0.1 mm 4 m/s 754 mmHg 77%
    03:00 0°C° 0.1 mm 4 m/s 753 mmHg 77%
    04:00 0°C° 0.1 mm 4 m/s 752 mmHg 78%
    05:00 0°C° 0.1 mm 4 m/s 752 mmHg 78%
    06:00 0°C° 0.1 mm 4 m/s 752 mmHg 78%
    07:00 0°C° 0.1 mm 4 m/s 751 mmHg 79%
    08:00 +1°C° 0.1 mm 3 m/s 751 mmHg 80%
    09:00 +1°C° 0.1 mm 3 m/s 751 mmHg 82%
    10:00 +1°C° 0.1 mm 3 m/s 751 mmHg 84%
    11:00 +2°C° 0.6 mm 2 m/s 750 mmHg 86%
    12:00 +2°C° 0.6 mm 2 m/s 750 mmHg 89%
    13:00 +2°C° 0.6 mm 2 m/s 749 mmHg 91%
    14:00 +3°C° 0.1 mm 2 m/s 748 mmHg 92%
    15:00 +3°C° 0.1 mm 2 m/s 747 mmHg 92%
    16:00 +4°C° 0.1 mm 2 m/s 746 mmHg 92%
    17:00 +4°C° 0.1 mm 2 m/s 746 mmHg 93%
    18:00 +5°C° 0.1 mm 1 m/s 746 mmHg 94%
    19:00 +6°C° 0.1 mm 1 m/s 746 mmHg 95%
    20:00 +6°C° 0.1 mm 1 m/s 746 mmHg 95%
    21:00 +6°C° 0.1 mm 1 m/s 746 mmHg 96%
    22:00 +6°C° 0.1 mm 1 m/s 745 mmHg 97%
    23:00 +7°C° 0.4 mm 1 m/s 745 mmHg 97%

    Poimâine, 21 Februarie, Joi

    Timp Temperatura Precipitaţii Vânt Presiune Umiditate
    00:00 +7°C° 0.4 mm 1 m/s 745 mmHg 98%
    01:00 +8°C° 0.4 mm 1 m/s 744 mmHg 98%
    02:00 +8°C° 0.4 mm 1 m/s 744 mmHg 98%
    03:00 +9°C° 0.4 mm 1 m/s 743 mmHg 98%
    04:00 +9°C° 0.4 mm 2 m/s 743 mmHg 98%
    05:00 +9°C° 0.2 mm 2 m/s 743 mmHg 98%
    06:00 +10°C° 0.2 mm 2 m/s 743 mmHg 98%
    07:00 +10°C° 0.2 mm 2 m/s 743 mmHg 98%
    08:00 +13°C° 0.3 mm 2 m/s 743 mmHg 98%
    09:00 +14°C° 0.3 mm 3 m/s 743 mmHg 97%
    10:00 +17°C° 0.3 mm 3 m/s 744 mmHg 96%
    11:00 +17°C° 1.1 mm 3 m/s 744 mmHg 95%
    12:00 +18°C° 1.1 mm 3 m/s 744 mmHg 94%
    13:00 +19°C° 1.1 mm 3 m/s 744 mmHg 93%
    14:00 +19°C° 0.7 mm 2 m/s 744 mmHg 95%
    15:00 +18°C° 0.7 mm 2 m/s 743 mmHg 96%
    16:00 +19°C° 0.7 mm 1 m/s 743 mmHg 97%
    17:00 +18°C° 0.1 mm 1 m/s 744 mmHg 97%
    18:00 +18°C° 0.1 mm 1 m/s 744 mmHg 97%
    19:00 +18°C° 0.1 mm 1 m/s 744 mmHg 98%
    20:00 +16°C° 0.1 mm 1 m/s 745 mmHg 98%
    21:00 +16°C° 0.1 mm 1 m/s 745 mmHg 98%
    22:00 +16°C° 0.1 mm 1 m/s 746 mmHg 98%
    23:00 +15°C° 0.2 mm 1 m/s 746 mmHg 98%

    22 Februarie, Vineri

    Timp Temperatura Precipitaţii Vânt Presiune Umiditate
    00:00 +15°C° 0.2 mm 2 m/s 746 mmHg 98%
    01:00 +15°C° 0.2 mm 2 m/s 746 mmHg 98%
    02:00 +13°C° 0.2 mm 3 m/s 746 mmHg 96%
    03:00 +13°C° 0.2 mm 3 m/s 746 mmHg 95%
    04:00 +12°C° 0.2 mm 4 m/s 746 mmHg 94%
    05:00 +12°C° 0.2 mm 4 m/s 747 mmHg 91%
    06:00 +11°C° 0.2 mm 3 m/s 747 mmHg 88%
    07:00 +10°C° 0.2 mm 3 m/s 748 mmHg 85%
    08:00 +10°C° 0.2 mm 3 m/s 748 mmHg 84%
    09:00 +10°C° 0.2 mm 3 m/s 749 mmHg 84%
    10:00 +8°C° 0.2 mm 4 m/s 750 mmHg 83%
    11:00 +8°C° 0.4 mm 4 m/s 750 mmHg 85%
    12:00 +8°C° 0.4 mm 4 m/s 750 mmHg 88%
    13:00 +8°C° 0.4 mm 4 m/s 750 mmHg 90%
    14:00 +8°C° 0.3 mm 4 m/s 750 mmHg 90%
    15:00 +8°C° 0.3 mm 4 m/s 750 mmHg 90%
    16:00 +7°C° 0.3 mm 4 m/s 750 mmHg 90%
    17:00 +7°C° 0.4 mm 4 m/s 751 mmHg 90%
    18:00 +7°C° 0.4 mm 3 m/s 751 mmHg 89%
    19:00 +7°C° 0.4 mm 3 m/s 752 mmHg 89%
    20:00 +7°C° 0.4 mm 3 m/s 752 mmHg 90%
    21:00 +7°C° 0.4 mm 3 m/s 752 mmHg 90%
    22:00 +5°C° 0.4 mm 3 m/s 753 mmHg 91%
    23:00 +5°C° 1.3 mm 3 m/s 752 mmHg 91%

    23 Februarie, Sâmbătă

    Timp Temperatura Precipitaţii Vânt Presiune Umiditate
    00:00 +5°C° 1.3 mm 3 m/s 752 mmHg 92%
    01:00 +5°C° 1.3 mm 3 m/s 752 mmHg 92%
    02:00 +5°C° 0.6 mm 3 m/s 751 mmHg 92%
    03:00 +5°C° 0.6 mm 3 m/s 751 mmHg 93%
    04:00 +6°C° 0.6 mm 2 m/s 751 mmHg 93%
    05:00 +6°C° 0.3 mm 2 m/s 751 mmHg 93%
    06:00 +6°C° 0.3 mm 2 m/s 751 mmHg 93%
    07:00 +6°C° 0.3 mm 2 m/s 751 mmHg 93%
    08:00 +6°C° 0.3 mm 2 m/s 751 mmHg 93%
    09:00 +7°C° 0.3 mm 2 m/s 751 mmHg 92%
    10:00 +7°C° 0.3 mm 2 m/s 751 mmHg 92%
    11:00 +7°C° 0.2 mm 2 m/s 750 mmHg 92%
    12:00 +8°C° 0.2 mm 1 m/s 749 mmHg 93%
    13:00 +8°C° 0.2 mm 1 m/s 749 mmHg 93%
    14:00 +9°C° 0.1 mm 1 m/s 748 mmHg 93%
    15:00 +9°C° 0.1 mm 1 m/s 748 mmHg 93%
    16:00 +9°C° 0.1 mm 1 m/s 747 mmHg 94%
    17:00 +9°C° 0 mm 1 m/s 747 mmHg 95%
    18:00 +9°C° 0 mm 1 m/s 747 mmHg 96%
    19:00 +9°C° 0 mm 1 m/s 746 mmHg 97%
    20:00 +9°C° 0.1 mm 1 m/s 746 mmHg 97%
    21:00 +9°C° 0.1 mm 1 m/s 746 mmHg 97%
    22:00 +10°C° 0.1 mm 1 m/s 745 mmHg 97%
    23:00 +10°C° 0 mm 1 m/s 745 mmHg 97%

    24 Februarie, Duminică

    Timp Temperatura Precipitaţii Vânt Presiune Umiditate
    00:00 +11°C° 0 mm 1 m/s 744 mmHg 98%
    01:00 +11°C° 0 mm 1 m/s 743 mmHg 99%
    02:00 +12°C° 0.1 mm 2 m/s 743 mmHg 99%
    03:00 +12°C° 0.1 mm 2 m/s 742 mmHg 99%
    04:00 +13°C° 0.1 mm 2 m/s 741 mmHg 99%
    05:00 +14°C° 0 mm 2 m/s 741 mmHg 98%
    06:00 +14°C° 0 mm 3 m/s 741 mmHg 98%
    07:00 +16°C° 0 mm 3 m/s 740 mmHg 98%
    08:00 +17°C° 0.1 mm 4 m/s 740 mmHg 96%
    09:00 +17°C° 0.1 mm 4 m/s 740 mmHg 94%
    10:00 +17°C° 0.1 mm 5 m/s 740 mmHg 92%
    11:00 +19°C° 0.1 mm 5 m/s 739 mmHg 90%
    12:00 +20°C° 0.1 mm 6 m/s 739 mmHg 87%
    13:00 +21°C° 0.1 mm 6 m/s 738 mmHg 84%
    14:00 +22°C° 0 mm 6 m/s 738 mmHg 72%
    15:00 +23°C° 0 mm 7 m/s 738 mmHg 61%
    16:00 +24°C° 0 mm 7 m/s 738 mmHg 49%
    17:00 +22°C° 0 mm 6 m/s 738 mmHg 48%
    18:00 +20°C° 0 mm 6 m/s 739 mmHg 47%
    19:00 +16°C° 0 mm 5 m/s 739 mmHg 46%
    20:00 +15°C° 0 mm 4 m/s 740 mmHg 51%
    21:00 +14°C° 0 mm 4 m/s 740 mmHg 55%
    22:00 +13°C° 0 mm 3 m/s 741 mmHg 60%
    23:00 +12°C° 0 mm 3 m/s 741 mmHg 63%
    Arată mai mult